| time (UTC) | temp C | wind direction | speed KPH | gust KPH | rain 1hr cm | rain 24hr cm | rain mn cm | humidity % | barometer mb |
| 20260906064017 | 31 | 269 | 0.0 | 3.2 | 0.00 | 0.00 | 0.00 | 36 | 1015.6 |
| 20260906063513 | 31 | 316 | 3.2 | 4.8 | 0.00 | 0.00 | 0.00 | 36 | 1015.4 |
| 20260906063008 | 31 | 37 | 0.0 | 1.6 | 0.00 | 0.00 | 0.00 | 36 | 1015.1 |
| 20260906062502 | 31 | 47 | 0.0 | 3.2 | 0.00 | 0.00 | 0.00 | 36 | 1015.3 |
| 20260906061957 | 31 | 64 | 0.0 | 3.2 | 0.00 | 0.00 | 0.00 | 36 | 1015.3 |
| 20260906061453 | 31 | 78 | 3.2 | 3.2 | 0.00 | 0.00 | 0.00 | 36 | 1015.3 |
| 20260906060947 | 31 | 199 | 0.0 | 3.2 | 0.00 | 0.00 | 0.00 | 36 | 1015.1 |
| 20260906060444 | 31 | 320 | 0.0 | 3.2 | 0.00 | 0.00 | 0.00 | 35 | 1015.5 |
| 20260906055940 | 31 | 119 | 3.2 | 4.8 | 0.00 | 0.00 | 0.00 | 36 | 1015.4 |
| 20260906055436 | 31 | 89 | 0.0 | 3.2 | 0.00 | 0.00 | 0.00 | 36 | 1015.4 |
| 20260906054931 | 31 | 72 | 0.0 | 3.2 | 0.00 | 0.00 | 0.00 | 35 | 1015.5 |
| 20260906054426 | 31 | 71 | 3.2 | 3.2 | 0.00 | 0.00 | 0.00 | 35 | 1015.5 |
| 20260906053922 | 31 | 72 | 3.2 | 4.8 | 0.00 | 0.00 | 0.00 | 35 | 1015.4 |
| 20260906053418 | 31 | 89 | 0.0 | 4.8 | 0.00 | 0.00 | 0.00 | 35 | 1015.4 |
| 20260906052913 | 31 | 143 | 0.0 | 4.8 | 0.00 | 0.00 | 0.00 | 36 | 1015.3 |
| 20260906052409 | 32 | 66 | 0.0 | 0.0 | 0.00 | 0.00 | 0.00 | 36 | 1015.4 |
| 20260906051906 | 32 | 72 | 1.6 | 4.8 | 0.00 | 0.00 | 0.00 | 36 | 1015.3 |
| 20260906051406 | 32 | 355 | 3.2 | 3.2 | 0.00 | 0.00 | 0.00 | 36 | 1015.3 |
| 20260906050902 | 32 | 352 | 1.6 | 4.8 | 0.00 | 0.00 | 0.00 | 35 | 1015.2 |
| 20260906050356 | 32 | 267 | 3.2 | 6.4 | 0.00 | 0.00 | 0.00 | 35 | 1015.3 |
| 20260906045855 | 32 | 23 | 4.8 | 6.4 | 0.00 | 0.00 | 0.00 | 35 | 1015.2 |
| 20260906045349 | 32 | 34 | 3.2 | 6.4 | 0.00 | 0.00 | 0.00 | 35 | 1015.3 |
| 20260906044846 | 32 | 5 | 1.6 | 4.8 | 0.00 | 0.00 | 0.00 | 35 | 1015.4 |
| 20260906044345 | 32 | 73 | 3.2 | 3.2 | 0.00 | 0.00 | 0.00 | 35 | 1015.3 |
| 20260906043841 | 32 | 32 | 3.2 | 8.0 | 0.00 | 0.00 | 0.00 | 35 | 1015.2 |
| 20260906043337 | 32 | 104 | 1.6 | 3.2 | 0.00 | 0.00 | 0.00 | 35 | 1015.1 |
| 20260906042832 | 32 | 81 | 0.0 | 6.4 | 0.00 | 0.00 | 0.00 | 34 | 1015.5 |
| 20260906042331 | 32 | 307 | 0.0 | 9.7 | 0.00 | 0.00 | 0.00 | 34 | 1015.2 |
| 20260906041826 | 32 | 298 | 8.0 | 14.5 | 0.00 | 0.00 | 0.00 | 35 | 1015.1 |
| 20260906041322 | 33 | 257 | 8.0 | 20.9 | 0.00 | 0.00 | 0.00 | 35 | 1014.9 |
| 20260906040817 | 32 | 305 | 9.7 | 12.9 | 0.00 | 0.00 | 0.00 | 34 | 1015.0 |
| 20260906040312 | 32 | 252 | 22.5 | 25.7 | 0.00 | 0.00 | 0.00 | 34 | 1014.7 |
| 20260906035808 | 32 | 267 | 12.9 | 22.5 | 0.00 | 0.00 | 0.00 | 34 | 1014.9 |
| 20260906035305 | 32 | 277 | 9.7 | 16.1 | 0.00 | 0.00 | 0.00 | 34 | 1014.8 |
| 20260906034758 | 32 | 305 | 11.3 | 16.1 | 0.00 | 0.00 | 0.00 | 34 | 1014.7 |
| 20260906034257 | 32 | 264 | 6.4 | 17.7 | 0.00 | 0.00 | 0.00 | 34 | 1014.5 |
| 20260906033754 | 33 | 289 | 3.2 | 16.1 | 0.00 | 0.00 | 0.00 | 34 | 1014.4 |
| 20260906033253 | 33 | 312 | 17.7 | 19.3 | 0.00 | 0.00 | 0.00 | 35 | 1014.5 |
| 20260906032749 | 33 | 257 | 6.4 | 17.7 | 0.00 | 0.00 | 0.00 | 35 | 1014.5 |
| 20260906032244 | 33 | 283 | 6.4 | 14.5 | 0.00 | 0.00 | 0.00 | 34 | 1014.4 |
| 20260906031739 | 33 | 298 | 16.1 | 20.9 | 0.00 | 0.00 | 0.00 | 33 | 1014.4 |
| 20260906031236 | 33 | 296 | 14.5 | 19.3 | 0.00 | 0.00 | 0.00 | 33 | 1014.4 |
| 20260906030734 | 33 | 285 | 8.0 | 19.3 | 0.00 | 0.00 | 0.00 | 32 | 1014.4 |
| 20260906030230 | 33 | 256 | 8.0 | 24.1 | 0.00 | 0.00 | 0.00 | 32 | 1014.1 |
| 20260906025729 | 33 | 265 | 9.7 | 22.5 | 0.00 | 0.00 | 0.00 | 32 | 1014.2 |
| 20260906025223 | 33 | 252 | 8.0 | 24.1 | 0.00 | 0.00 | 0.00 | 32 | 1014.0 |
| 20260906024723 | 33 | 259 | 14.5 | 20.9 | 0.00 | 0.00 | 0.00 | 32 | 1014.2 |
| 20260906024222 | 33 | 264 | 9.7 | 27.4 | 0.00 | 0.00 | 0.00 | 32 | 1014.3 |
| 20260906023718 | 33 | 266 | 17.7 | 30.6 | 0.00 | 0.00 | 0.00 | 32 | 1014.3 |
| 20260906023213 | 33 | 237 | 16.1 | 32.2 | 0.00 | 0.00 | 0.00 | 32 | 1014.0 |
| 20260906022708 | 33 | 260 | 17.7 | 20.9 | 0.00 | 0.00 | 0.00 | 32 | 1014.1 |
| 20260906022204 | 33 | 278 | 9.7 | 20.9 | 0.00 | 0.00 | 0.00 | 32 | 1013.9 |
| 20260906021700 | 34 | 273 | 6.4 | 20.9 | 0.00 | 0.00 | 0.00 | 32 | 1014.0 |
| 20260906021157 | 34 | 294 | 14.5 | 22.5 | 0.00 | 0.00 | 0.00 | 32 | 1014.2 |
| 20260906020647 | 34 | 258 | 11.3 | 14.5 | 0.00 | 0.00 | 0.00 | 32 | 1014.0 |
| 20260906020141 | 34 | 284 | 11.3 | 19.3 | 0.00 | 0.00 | 0.00 | 32 | 1014.1 |
| 20260906015636 | 35 | 286 | 9.7 | 17.7 | 0.00 | 0.00 | 0.00 | 32 | 1014.2 |
| 20260906015134 | 35 | 313 | 8.0 | 22.5 | 0.00 | 0.00 | 0.00 | 32 | 1014.1 |
| 20260906014629 | 35 | 282 | 8.0 | 19.3 | 0.00 | 0.00 | 0.00 | 33 | 1014.1 |
| 20260906014125 | 35 | 269 | 12.9 | 20.9 | 0.00 | 0.00 | 0.00 | 33 | 1014.1 |
| 20260906013620 | 35 | 250 | 6.4 | 12.9 | 0.00 | 0.00 | 0.00 | 32 | 1014.1 |
| 20260906013116 | 35 | 295 | 8.0 | 12.9 | 0.00 | 0.00 | 0.00 | 31 | 1014.0 |
| 20260906012611 | 35 | 261 | 6.4 | 11.3 | 0.00 | 0.00 | 0.00 | 31 | 1014.2 |
| 20260906012110 | 35 | 292 | 4.8 | 12.9 | 0.00 | 0.00 | 0.00 | 31 | 1014.0 |
| 20260906011606 | 35 | 280 | 6.4 | 9.7 | 0.00 | 0.00 | 0.00 | 30 | 1014.1 |
| 20260906011101 | 36 | 242 | 12.9 | 14.5 | 0.00 | 0.00 | 0.00 | 30 | 1014.1 |
| 20260906010556 | 36 | 248 | 3.2 | 11.3 | 0.00 | 0.00 | 0.00 | 29 | 1014.1 |
| 20260906010053 | 36 | 238 | 11.3 | 20.9 | 0.00 | 0.00 | 0.00 | 28 | 1014.0 |
| 20260906005551 | 37 | 254 | 6.4 | 17.7 | 0.00 | 0.00 | 0.00 | 28 | 1013.9 |
| 20260906005050 | 37 | 241 | 12.9 | 19.3 | 0.00 | 0.00 | 0.00 | 27 | 1014.0 |
| 20260906004550 | 37 | 264 | 19.3 | 20.9 | 0.00 | 0.00 | 0.00 | 27 | 1014.0 |
| 20260906004045 | 37 | 266 | 14.5 | 22.5 | 0.00 | 0.00 | 0.00 | 27 | 1013.8 |
| 20260906003540 | 37 | 234 | 17.7 | 32.2 | 0.00 | 0.00 | 0.00 | 26 | 1013.9 |
| 20260906003036 | 38 | 238 | 19.3 | 24.1 | 0.00 | 0.00 | 0.00 | 26 | 1013.8 |
| 20260906002531 | 38 | 243 | 6.4 | 17.7 | 0.00 | 0.00 | 0.00 | 26 | 1013.9 |
| 20260906002026 | 37 | 247 | 8.0 | 27.4 | 0.00 | 0.00 | 0.00 | 26 | 1013.7 |
| 20260906001521 | 38 | 223 | 8.0 | 17.7 | 0.00 | 0.00 | 0.00 | 25 | 1013.8 |
| 20260906001021 | 38 | 245 | 16.1 | 19.3 | 0.00 | 0.00 | 0.00 | 25 | 1013.7 |
| 20260906000517 | 38 | 233 | 17.7 | 27.4 | 0.00 | 0.00 | 0.00 | 25 | 1013.9 |
| 20260906000012 | 39 | 238 | 9.7 | 19.3 | 0.00 | 0.00 | 0.00 | 25 | 1013.6 |
| 20260905235506 | 38 | 230 | 3.2 | 24.1 | 0.00 | 0.00 | 0.00 | 24 | 1013.7 |
| 20260905235001 | 39 | 228 | 8.0 | 14.5 | 0.00 | 0.00 | 0.00 | 24 | 1013.7 |
| 20260905234456 | 39 | 214 | 9.7 | 20.9 | 0.00 | 0.00 | 0.00 | 24 | 1013.8 |
| 20260905233950 | 39 | 197 | 4.8 | 22.5 | 0.00 | 0.00 | 0.00 | 24 | 1013.8 |
| 20260905233447 | 39 | 236 | 12.9 | 24.1 | 0.00 | 0.00 | 0.00 | 23 | 1013.9 |
| 20260905232944 | 40 | 244 | 24.1 | 30.6 | 0.00 | 0.00 | 0.00 | 23 | 1013.8 |
| 20260905232441 | 39 | 210 | 4.8 | 16.1 | 0.00 | 0.00 | 0.00 | 23 | 1013.9 |
| 20260905231936 | 40 | 238 | 0.0 | 9.7 | 0.00 | 0.00 | 0.00 | 22 | 1013.8 |
| 20260905231432 | 39 | 180 | 6.4 | 11.3 | 0.00 | 0.00 | 0.00 | 23 | 1013.9 |
| 20260905230928 | 38 | 89 | 4.8 | 9.7 | 0.00 | 0.00 | 0.00 | 23 | 1013.9 |
| 20260905230426 | 37 | 241 | 6.4 | 9.7 | 0.00 | 0.00 | 0.00 | 24 | 1013.9 |
| 20260905225925 | 39 | 235 | 11.3 | 12.9 | 0.00 | 0.00 | 0.00 | 24 | 1014.3 |
| 20260905225420 | 37 | 245 | 12.9 | 19.3 | 0.00 | 0.00 | 0.00 | 25 | 1014.2 |
| 20260905224915 | 37 | 234 | 8.0 | 9.7 | 0.00 | 0.00 | 0.00 | 25 | 1014.2 |
| 20260905224411 | 37 | 243 | 9.7 | 12.9 | 0.00 | 0.00 | 0.00 | 25 | 1014.3 |
| 20260905223905 | 37 | 273 | 8.0 | 14.5 | 0.00 | 0.00 | 0.00 | 25 | 1014.2 |
| 20260905223403 | 37 | 237 | 17.7 | 20.9 | 0.00 | 0.00 | 0.00 | 25 | 1014.3 |
| 20260905222903 | 37 | 248 | 22.5 | 24.1 | 0.00 | 0.00 | 0.00 | 24 | 1014.4 |
| 20260905222402 | 37 | 302 | 4.8 | 16.1 | 0.00 | 0.00 | 0.00 | 25 | 1014.1 |
| 20260905221858 | 37 | 260 | 17.7 | 22.5 | 0.00 | 0.00 | 0.00 | 25 | 1014.2 |
| 20260905221355 | 37 | 261 | 6.4 | 24.1 | 0.00 | 0.00 | 0.00 | 25 | 1014.1 |
| 20260905220850 | 37 | 245 | 12.9 | 22.5 | 0.00 | 0.00 | 0.00 | 25 | 1014.4 |
| 20260905220347 | 37 | 236 | 11.3 | 25.7 | 0.00 | 0.00 | 0.00 | 26 | 1014.3 |
| 20260905215845 | 37 | 264 | 6.4 | 17.7 | 0.00 | 0.00 | 0.00 | 26 | 1014.6 |
| 20260905215341 | 36 | 226 | 8.0 | 11.3 | 0.00 | 0.00 | 0.00 | 25 | 1014.8 |
| 20260905214832 | 37 | 227 | 6.4 | 14.5 | 0.00 | 0.00 | 0.00 | 25 | 1014.8 |
| 20260905214327 | 37 | 252 | 9.7 | 16.1 | 0.00 | 0.00 | 0.00 | 25 | 1014.7 |
| 20260905213821 | 37 | 245 | 9.7 | 22.5 | 0.00 | 0.00 | 0.00 | 24 | 1014.7 |
| 20260905213318 | 37 | 251 | 12.9 | 19.3 | 0.00 | 0.00 | 0.00 | 25 | 1014.7 |
| 20260905212813 | 37 | 280 | 1.6 | 12.9 | 0.00 | 0.00 | 0.00 | 25 | 1014.8 |
| 20260905212312 | 37 | 228 | 8.0 | 22.5 | 0.00 | 0.00 | 0.00 | 25 | 1014.8 |
| 20260905211807 | 37 | 240 | 12.9 | 20.9 | 0.00 | 0.00 | 0.00 | 25 | 1015.0 |
| 20260905211302 | 36 | 243 | 8.0 | 20.9 | 0.00 | 0.00 | 0.00 | 25 | 1014.9 |
| 20260905210759 | 37 | 220 | 6.4 | 14.5 | 0.00 | 0.00 | 0.00 | 25 | 1015.0 |
| 20260905210253 | 37 | 247 | 16.1 | 16.1 | 0.00 | 0.00 | 0.00 | 25 | 1015.0 |
| 20260905205752 | 37 | 228 | 9.7 | 17.7 | 0.00 | 0.00 | 0.00 | 24 | 1015.0 |
| 20260905205246 | 37 | 200 | 9.7 | 12.9 | 0.00 | 0.00 | 0.00 | 24 | 1015.1 |
| 20260905204746 | 37 | 221 | 11.3 | 22.5 | 0.00 | 0.00 | 0.00 | 24 | 1015.3 |
| 20260905204242 | 37 | 245 | 11.3 | 22.5 | 0.00 | 0.00 | 0.00 | 23 | 1015.2 |
| 20260905203741 | 37 | 234 | 6.4 | 12.9 | 0.00 | 0.00 | 0.00 | 25 | 1015.2 |
| 20260905203237 | 37 | 258 | 8.0 | 24.1 | 0.00 | 0.00 | 0.00 | 24 | 1015.2 |
| 20260905202732 | 37 | 214 | 11.3 | 19.3 | 0.00 | 0.00 | 0.00 | 23 | 1015.2 |
| 20260905202227 | 37 | 254 | 9.7 | 22.5 | 0.00 | 0.00 | 0.00 | 23 | 1015.5 |
| 20260905201722 | 37 | 236 | 9.7 | 17.7 | 0.00 | 0.00 | 0.00 | 24 | 1015.4 |
| 20260905201223 | 39 | 236 | 9.7 | 12.9 | 0.00 | 0.00 | 0.00 | 18 | 1015.6 |
| 20260905200718 | 40 | 214 | 8.0 | 16.1 | 0.00 | 0.00 | 0.00 | 18 | 1015.5 |
| 20260905200214 | 38 | 135 | 4.8 | 11.3 | 0.00 | 0.00 | 0.00 | 18 | 1015.6 |
| 20260905195712 | 38 | 91 | 0.0 | 8.0 | 0.00 | 0.00 | 0.00 | 14 | 1015.8 |
| 20260905195206 | 38 | 254 | 11.3 | 12.9 | 0.00 | 0.00 | 0.00 | 14 | 1015.8 |
| 20260905194656 | 38 | 174 | 0.0 | 6.4 | 0.00 | 0.00 | 0.00 | 13 | 1015.9 |
| 20260905194155 | 37 | 107 | 9.7 | 16.1 | 0.00 | 0.00 | 0.00 | 13 | 1015.8 |
| 20260905193650 | 37 | 176 | 3.2 | 12.9 | 0.00 | 0.00 | 0.00 | 13 | 1016.2 |
| 20260905193145 | 37 | 125 | 3.2 | 9.7 | 0.00 | 0.00 | 0.00 | 13 | 1016.0 |
| 20260905192640 | 37 | 91 | 6.4 | 9.7 | 0.00 | 0.00 | 0.00 | 13 | 1016.1 |
| 20260905192137 | 38 | 192 | 3.2 | 16.1 | 0.00 | 0.00 | 0.00 | 12 | 1016.0 |
| 20260905191637 | 37 | 95 | 4.8 | 8.0 | 0.00 | 0.00 | 0.00 | 12 | 1016.1 |
| 20260905191134 | 38 | 97 | 8.0 | 11.3 | 0.00 | 0.00 | 0.00 | 12 | 1016.3 |
| 20260905190632 | 37 | 91 | 6.4 | 9.7 | 0.00 | 0.00 | 0.00 | 12 | 1016.3 |
| 20260905190127 | 38 | 104 | 8.0 | 9.7 | 0.00 | 0.00 | 0.00 | 11 | 1016.3 |
| 20260905185625 | 38 | 314 | 3.2 | 6.4 | 0.00 | 0.00 | 0.00 | 11 | 1016.1 |
| 20260905185119 | 38 | 45 | 3.2 | 6.4 | 0.00 | 0.00 | 0.00 | 11 | 1016.3 |
| 20260905184614 | 37 | 79 | 6.4 | 11.3 | 0.00 | 0.00 | 0.00 | 11 | 1016.5 |
| 20260905184113 | 37 | 100 | 8.0 | 11.3 | 0.00 | 0.00 | 0.00 | 11 | 1016.5 |
| 20260905183612 | 37 | 92 | 8.0 | 11.3 | 0.00 | 0.00 | 0.00 | 11 | 1016.6 |
| 20260905183108 | 37 | 215 | 3.2 | 8.0 | 0.00 | 0.00 | 0.00 | 11 | 1016.7 |
| 20260905182607 | 37 | 104 | 12.9 | 14.5 | 0.00 | 0.00 | 0.00 | 10 | 1016.7 |
| 20260905182102 | 36 | 248 | 3.2 | 11.3 | 0.00 | 0.00 | 0.00 | 10 | 1016.6 |
| 20260905181602 | 37 | 89 | 3.2 | 6.4 | 0.00 | 0.00 | 0.00 | 13 | 1016.7 |
| 20260905181101 | 37 | 106 | 8.0 | 12.9 | 0.00 | 0.00 | 0.00 | 12 | 1016.8 |
| 20260905180556 | 38 | 141 | 3.2 | 3.2 | 0.00 | 0.00 | 0.00 | 10 | 1016.8 |
| 20260905180051 | 37 | 94 | 0.0 | 4.8 | 0.00 | 0.00 | 0.00 | 11 | 1016.9 |
| 20260905175550 | 37 | 317 | 3.2 | 6.4 | 0.00 | 0.00 | 0.00 | 11 | 1016.8 |
| 20260905175046 | 37 | 355 | 4.8 | 4.8 | 0.00 | 0.00 | 0.00 | 11 | 1016.7 |
| 20260905174542 | 37 | 195 | 0.0 | 4.8 | 0.00 | 0.00 | 0.00 | 10 | 1016.8 |
| 20260905174037 | 36 | 261 | 3.2 | 8.0 | 0.00 | 0.00 | 0.00 | 10 | 1016.8 |
| 20260905173534 | 36 | 250 | 6.4 | 6.4 | 0.00 | 0.00 | 0.00 | 9 | 1016.9 |
| 20260905173029 | 36 | 299 | 1.6 | 4.8 | 0.00 | 0.00 | 0.00 | 10 | 1016.8 |
| 20260905172528 | 36 | 62 | 3.2 | 6.4 | 0.00 | 0.00 | 0.00 | 9 | 1016.8 |
| 20260905172023 | 36 | 111 | 3.2 | 6.4 | 0.00 | 0.00 | 0.00 | 9 | 1016.7 |
| 20260905171519 | 36 | 106 | 4.8 | 9.7 | 0.00 | 0.00 | 0.00 | 9 | 1016.8 |
| 20260905171015 | 36 | 142 | 4.8 | 8.0 | 0.00 | 0.00 | 0.00 | 9 | 1016.8 |
| 20260905170512 | 35 | 173 | 3.2 | 4.8 | 0.00 | 0.00 | 0.00 | 9 | 1016.7 |
| 20260905170007 | 35 | 112 | 4.8 | 8.0 | 0.00 | 0.00 | 0.00 | 9 | 1016.8 |
| 20260905165501 | 35 | 102 | 3.2 | 3.2 | 0.00 | 0.00 | 0.00 | 9 | 1016.8 |
| 20260905164955 | 33 | 27 | 1.6 | 6.4 | 0.00 | 0.00 | 0.00 | 10 | 1016.7 |
| 20260905164450 | 33 | 75 | 3.2 | 3.2 | 0.00 | 0.00 | 0.00 | 10 | 1016.6 |
| 20260905163945 | 32 | 30 | 1.6 | 3.2 | 0.00 | 0.00 | 0.00 | 11 | 1016.8 |
| 20260905163442 | 32 | 89 | 4.8 | 4.8 | 0.00 | 0.00 | 0.00 | 10 | 1016.6 |
| 20260905162937 | 31 | 319 | 0.0 | 3.2 | 0.00 | 0.00 | 0.00 | 10 | 1016.6 |
| 20260905162433 | 31 | 88 | 3.2 | 3.2 | 0.00 | 0.00 | 0.00 | 10 | 1016.7 |
| 20260905161927 | 31 | 245 | 0.0 | 3.2 | 0.00 | 0.00 | 0.00 | 10 | 1016.6 |
| 20260905161426 | 31 | 293 | 3.2 | 6.4 | 0.00 | 0.00 | 0.00 | 9 | 1016.7 |
| 20260905160925 | 31 | 297 | 3.2 | 3.2 | 0.00 | 0.00 | 0.00 | 10 | 1016.6 |
| 20260905160419 | 31 | 328 | 3.2 | 6.4 | 0.00 | 0.00 | 0.00 | 11 | 1016.3 |
| 20260905155918 | 31 | 331 | 1.6 | 4.8 | 0.00 | 0.00 | 0.00 | 10 | 1016.5 |
| 20260905155419 | 31 | 262 | 4.8 | 6.4 | 0.00 | 0.00 | 0.00 | 9 | 1016.7 |
| 20260905154917 | 30 | 257 | 6.4 | 9.7 | 0.00 | 0.00 | 0.00 | 9 | 1016.7 |
| 20260905154413 | 30 | 269 | 0.0 | 4.8 | 0.00 | 0.00 | 0.00 | 10 | 1016.9 |
| 20260905153909 | 31 | 237 | 0.0 | 3.2 | 0.00 | 0.00 | 0.00 | 10 | 1016.7 |
| 20260905153405 | 31 | 205 | 1.6 | 3.2 | 0.00 | 0.00 | 0.00 | 11 | 1016.6 |
| 20260905152904 | 32 | 232 | 3.2 | 3.2 | 0.00 | 0.00 | 0.00 | 10 | 1016.7 |
| 20260905152404 | 33 | 132 | 0.0 | 1.6 | 0.00 | 0.00 | 0.00 | 10 | 1016.7 |
| 20260905151859 | 32 | 27 | 0.0 | 1.6 | 0.00 | 0.00 | 0.00 | 10 | 1016.6 |
| 20260905151354 | 32 | 44 | 0.0 | 3.2 | 0.00 | 0.00 | 0.00 | 11 | 1016.3 |
| 20260905150849 | 31 | 330 | 1.6 | 3.2 | 0.00 | 0.00 | 0.00 | 10 | 1016.5 |
| 20260905150343 | 31 | 72 | 0.0 | 3.2 | 0.00 | 0.00 | 0.00 | 11 | 1016.3 |
| 20260905145841 | 30 | 36 | 1.6 | 3.2 | 0.00 | 0.00 | 0.00 | 12 | 1016.3 |
| 20260905145341 | 27 | 347 | 3.2 | 3.2 | 0.00 | 0.00 | 0.00 | 13 | 1016.2 |
| 20260905144839 | 26 | 9 | 0.0 | 3.2 | 0.00 | 0.00 | 0.00 | 15 | 1016.1 |
| 20260905144335 | 26 | 6 | 3.2 | 4.8 | 0.00 | 0.00 | 0.00 | 14 | 1016.1 |
| 20260905143834 | 27 | 294 | 3.2 | 3.2 | 0.00 | 0.00 | 0.00 | 12 | 1016.2 |
| 20260905143328 | 26 | 222 | 1.6 | 3.2 | 0.00 | 0.00 | 0.00 | 13 | 1016.1 |
| 20260905142828 | 26 | 67 | 1.6 | 4.8 | 0.00 | 0.00 | 0.00 | 13 | 1016.0 |
| 20260905142321 | 26 | 282 | 0.0 | 3.2 | 0.00 | 0.00 | 0.00 | 13 | 1016.0 |
| 20260905141818 | 25 | 194 | 1.6 | 4.8 | 0.00 | 0.00 | 0.00 | 13 | 1015.8 |
| 20260905141313 | 26 | 67 | 3.2 | 4.8 | 0.00 | 0.00 | 0.00 | 12 | 1015.9 |
| 20260905140808 | 25 | 126 | 0.0 | 3.2 | 0.00 | 0.00 | 0.00 | 12 | 1015.8 |
| 20260905140303 | 25 | 175 | 3.2 | 3.2 | 0.00 | 0.00 | 0.00 | 14 | 1015.8 |
| 20260905135801 | 25 | 72 | 0.0 | 3.2 | 0.00 | 0.00 | 0.00 | 14 | 1015.6 |
| 20260905135258 | 25 | 107 | 4.8 | 6.4 | 0.00 | 0.00 | 0.00 | 15 | 1015.5 |
| 20260905134757 | 25 | 63 | 4.8 | 4.8 | 0.00 | 0.00 | 0.00 | 15 | 1015.5 |
| 20260905134251 | 27 | 274 | 3.2 | 6.4 | 0.00 | 0.00 | 0.00 | 13 | 1015.4 |
| 20260905133745 | 28 | 179 | 0.0 | 4.8 | 0.00 | 0.00 | 0.00 | 11 | 1015.0 |
| 20260905133241 | 28 | 275 | 6.4 | 8.0 | 0.00 | 0.00 | 0.00 | 11 | 1015.4 |
| 20260905132740 | 28 | 230 | 6.4 | 14.5 | 0.00 | 0.00 | 0.00 | 11 | 1015.1 |
| 20260905132235 | 28 | 0 | 3.2 | 6.4 | 0.00 | 0.00 | 0.00 | 11 | 1015.1 |
| 20260905131730 | 27 | 66 | 0.0 | 4.8 | 0.00 | 0.00 | 0.00 | 12 | 1015.1 |
| 20260905131225 | 25 | 266 | 1.6 | 6.4 | 0.00 | 0.00 | 0.00 | 13 | 1015.0 |
| 20260905130720 | 25 | 318 | 3.2 | 4.8 | 0.00 | 0.00 | 0.00 | 14 | 1014.9 |
| 20260905130219 | 25 | 334 | 3.2 | 4.8 | 0.00 | 0.00 | 0.00 | 14 | 1015.0 |
| 20260905125715 | 25 | 341 | 4.8 | 6.4 | 0.00 | 0.00 | 0.00 | 14 | 1015.2 |
| 20260905125210 | 25 | 228 | 0.0 | 1.6 | 0.00 | 0.00 | 0.00 | 15 | 1015.1 |
| 20260905124706 | 25 | 67 | 3.2 | 3.2 | 0.00 | 0.00 | 0.00 | 14 | 1015.2 |
| 20260905124201 | 26 | 116 | 0.0 | 1.6 | 0.00 | 0.00 | 0.00 | 15 | 1015.0 |
| 20260905123656 | 26 | 241 | 0.0 | 3.2 | 0.00 | 0.00 | 0.00 | 14 | 1015.0 |
| 20260905123154 | 27 | 338 | 1.6 | 6.4 | 0.00 | 0.00 | 0.00 | 13 | 1015.1 |
| 20260905122653 | 27 | 338 | 4.8 | 9.7 | 0.00 | 0.00 | 0.00 | 10 | 1015.0 |
| 20260905122148 | 26 | 233 | 4.8 | 6.4 | 0.00 | 0.00 | 0.00 | 11 | 1015.2 |
| 20260905121643 | 25 | 62 | 0.0 | 4.8 | 0.00 | 0.00 | 0.00 | 12 | 1015.0 |
| 20260905121138 | 24 | 45 | 0.0 | 3.2 | 0.00 | 0.00 | 0.00 | 17 | 1015.0 |
| 20260905120637 | 24 | 246 | 0.0 | 3.2 | 0.00 | 0.00 | 0.00 | 17 | 1015.3 |
| 20260905120132 | 26 | 354 | 1.6 | 9.7 | 0.00 | 0.00 | 0.00 | 14 | 1014.9 |
| 20260905115631 | 26 | 320 | 3.2 | 3.2 | 0.00 | 0.00 | 0.00 | 11 | 1014.8 |
| 20260905115126 | 26 | 307 | 3.2 | 8.0 | 0.00 | 0.00 | 0.00 | 13 | 1015.1 |
| 20260905114626 | 26 | 229 | 3.2 | 3.2 | 0.00 | 0.00 | 0.00 | 14 | 1015.0 |
| 20260905114125 | 25 | 252 | 3.2 | 4.8 | 0.00 | 0.00 | 0.00 | 13 | 1014.8 |
| 20260905113620 | 24 | 229 | 4.8 | 6.4 | 0.00 | 0.00 | 0.00 | 16 | 1015.0 |
| 20260905113115 | 25 | 215 | 1.6 | 3.2 | 0.00 | 0.00 | 0.00 | 17 | 1014.9 |
| 20260905112609 | 25 | 244 | 3.2 | 4.8 | 0.00 | 0.00 | 0.00 | 17 | 1014.9 |
| 20260905112106 | 26 | 248 | 3.2 | 3.2 | 0.00 | 0.00 | 0.00 | 16 | 1015.1 |
| 20260905111600 | 25 | 125 | 0.0 | 3.2 | 0.00 | 0.00 | 0.00 | 15 | 1015.1 |
| 20260905111059 | 26 | 92 | 0.0 | 4.8 | 0.00 | 0.00 | 0.00 | 15 | 1015.2 |
| 20260905110558 | 25 | 131 | 0.0 | 4.8 | 0.00 | 0.00 | 0.00 | 16 | 1015.1 |
| 20260905110049 | 24 | 159 | 3.2 | 4.8 | 0.00 | 0.00 | 0.00 | 17 | 1015.1 |
| 20260905105548 | 23 | 105 | 0.0 | 4.8 | 0.00 | 0.00 | 0.00 | 19 | 1015.2 |
| 20260905105048 | 23 | 114 | 1.6 | 3.2 | 0.00 | 0.00 | 0.00 | 20 | 1014.9 |
| 20260905104544 | 23 | 224 | 0.0 | 1.6 | 0.00 | 0.00 | 0.00 | 20 | 1014.9 |
| 20260905104043 | 23 | 71 | 0.0 | 1.6 | 0.00 | 0.00 | 0.00 | 20 | 1015.2 |
| 20260905103538 | 23 | 212 | 3.2 | 3.2 | 0.00 | 0.00 | 0.00 | 20 | 1015.1 |
| 20260905103035 | 23 | 146 | 0.0 | 1.6 | 0.00 | 0.00 | 0.00 | 21 | 1015.0 |
| 20260905102530 | 23 | 197 | 1.6 | 1.6 | 0.00 | 0.00 | 0.00 | 20 | 1014.8 |
| 20260905102026 | 23 | 242 | 0.0 | 3.2 | 0.00 | 0.00 | 0.00 | 20 | 1015.0 |
| 20260905101524 | 23 | 352 | 1.6 | 3.2 | 0.00 | 0.00 | 0.00 | 21 | 1014.8 |
| 20260905101023 | 23 | 230 | 3.2 | 6.4 | 0.00 | 0.00 | 0.00 | 20 | 1014.8 |
| 20260905100520 | 23 | 299 | 3.2 | 3.2 | 0.00 | 0.00 | 0.00 | 20 | 1014.9 |
| 20260905100020 | 23 | 255 | 0.0 | 3.2 | 0.00 | 0.00 | 0.00 | 19 | 1015.0 |
| 20260905095514 | 22 | 259 | 1.6 | 3.2 | 0.00 | 0.00 | 0.00 | 19 | 1015.1 |
| 20260905095009 | 23 | 15 | 0.0 | 3.2 | 0.00 | 0.00 | 0.00 | 20 | 1015.1 |
| 20260905094504 | 24 | 202 | 0.0 | 3.2 | 0.00 | 0.00 | 0.00 | 19 | 1015.1 |
| 20260905094004 | 24 | 316 | 1.6 | 3.2 | 0.00 | 0.00 | 0.00 | 19 | 1015.3 |
| 20260905093458 | 24 | 268 | 1.6 | 1.6 | 0.00 | 0.00 | 0.00 | 15 | 1015.1 |
| 20260905092955 | 24 | 25 | 0.0 | 3.2 | 0.00 | 0.00 | 0.00 | 15 | 1015.1 |
| 20260905092449 | 24 | 177 | 3.2 | 3.2 | 0.00 | 0.00 | 0.00 | 15 | 1015.2 |
| 20260905091945 | 25 | 150 | 1.6 | 3.2 | 0.00 | 0.00 | 0.00 | 16 | 1015.1 |
| 20260905091439 | 24 | 87 | 0.0 | 1.6 | 0.00 | 0.00 | 0.00 | 17 | 1015.2 |
| 20260905090939 | 25 | 239 | 4.8 | 4.8 | 0.00 | 0.00 | 0.00 | 19 | 1015.0 |
| 20260905090434 | 23 | 169 | 0.0 | 3.2 | 0.00 | 0.00 | 0.00 | 20 | 1015.2 |
| 20260905085933 | 24 | 232 | 0.0 | 3.2 | 0.00 | 0.00 | 0.00 | 20 | 1015.3 |
| 20260905085432 | 24 | 134 | 0.0 | 3.2 | 0.00 | 0.00 | 0.00 | 19 | 1015.3 |
| 20260905084928 | 24 | 37 | 0.0 | 3.2 | 0.00 | 0.00 | 0.00 | 19 | 1015.4 |
| 20260905084428 | 23 | 184 | 0.0 | 3.2 | 0.00 | 0.00 | 0.00 | 21 | 1015.5 |
| 20260905083922 | 23 | 197 | 1.6 | 3.2 | 0.00 | 0.00 | 0.00 | 23 | 1015.5 |
| 20260905083418 | 23 | 260 | 0.0 | 3.2 | 0.00 | 0.00 | 0.00 | 23 | 1015.5 |
| 20260905082914 | 23 | 29 | 0.0 | 3.2 | 0.00 | 0.00 | 0.00 | 23 | 1015.4 |
| 20260905082409 | 24 | 82 | 3.2 | 3.2 | 0.00 | 0.00 | 0.00 | 23 | 1015.4 |
| 20260905081904 | 25 | 359 | 3.2 | 3.2 | 0.00 | 0.00 | 0.00 | 19 | 1015.6 |
| 20260905081359 | 25 | 205 | 1.6 | 3.2 | 0.00 | 0.00 | 0.00 | 18 | 1015.6 |
| 20260905080858 | 25 | 105 | 0.0 | 3.2 | 0.00 | 0.00 | 0.00 | 19 | 1015.5 |
| 20260905080353 | 25 | 129 | 0.0 | 3.2 | 0.00 | 0.00 | 0.00 | 18 | 1015.5 |
| 20260905075851 | 25 | 215 | 0.0 | 3.2 | 0.00 | 0.00 | 0.00 | 20 | 1015.4 |
| 20260905075345 | 25 | 237 | 0.0 | 3.2 | 0.00 | 0.00 | 0.00 | 20 | 1015.5 |
| 20260905074844 | 26 | 300 | 3.2 | 3.2 | 0.00 | 0.00 | 0.00 | 18 | 1015.4 |
| 20260905074341 | 27 | 229 | 0.0 | 3.2 | 0.00 | 0.00 | 0.00 | 18 | 1015.6 |
| 20260905073836 | 25 | 16 | 1.6 | 3.2 | 0.00 | 0.00 | 0.00 | 21 | 1015.4 |
| 20260905073331 | 25 | 326 | 0.0 | 3.2 | 0.00 | 0.00 | 0.00 | 22 | 1015.5 |
| 20260905072826 | 25 | 297 | 0.0 | 1.6 | 0.00 | 0.00 | 0.00 | 22 | 1015.6 |
| 20260905072320 | 25 | 255 | 0.0 | 1.6 | 0.00 | 0.00 | 0.00 | 21 | 1015.4 |
| 20260905071817 | 25 | 142 | 3.2 | 3.2 | 0.00 | 0.00 | 0.00 | 22 | 1015.4 |
| 20260905071313 | 25 | 143 | 1.6 | 3.2 | 0.00 | 0.00 | 0.00 | 22 | 1015.4 |
| 20260905070807 | 25 | 208 | 0.0 | 3.2 | 0.00 | 0.00 | 0.00 | 22 | 1015.3 |
| 20260905070304 | 25 | 180 | 3.2 | 3.2 | 0.00 | 0.00 | 0.00 | 23 | 1015.1 |
| 20260905065803 | 25 | 224 | 0.0 | 3.2 | 0.00 | 0.00 | 0.00 | 24 | 1015.0 |
| 20260905065306 | 25 | 124 | 0.0 | 1.6 | 0.00 | 0.00 | 0.00 | 24 | 1015.1 |
| 20260905064758 | 26 | 126 | 0.0 | 3.2 | 0.00 | 0.00 | 0.00 | 23 | 1015.0 |